Weather History for Granite Falls, MN

Change the Weather History Date:

Thursday, October 4, 2012

  Actual Average (KMVE) Record (KMVE)
Temperature  
Mean Temperature 50 °F -  
Max Temperature 62 °F 66 °F 87 °F (1975)
Min Temperature 39 °F 40 °F 24 °F (1968)
Degree Days  
Heating Degree Days 14    
Moisture  
Dew Point 33 °F    
Average Humidity 64    
Maximum Humidity 77    
Minimum Humidity 33    
Precipitation  
Precipitation 0.00 in - - ()
Sea Level Pressure  
Sea Level Pressure 30.08 in    
Wind  
Wind Speed 23 mph (West)    
Max Wind Speed 36 mph    
Max Gust Speed 44 mph    
Visibility 10 miles    
Events      
Averages and records for this station are not official NWS values.
T = Trace of Precipitation, MM = Missing Value Source: NWS Daily Summary

Daily Weather History Graph

Daily Weather History Graph

Search for Another Location

Airport:

Trip Planner

Search our weather history database for the weather conditions in past years. The results will help you decide how hot, cold, wet, or windy it might be!

Date:

Astronomy

Oct. 04, 2012 Rise Set
Actual Time 7:24 AM CDT 6:56 PM CDT
Civil Twilight 6:55 AM CDT 7:25 PM CDT
Nautical Twilight 6:21 AM CDT 7:59 PM CDT
Astronomical Twilight 5:47 AM CDT 8:33 PM CDT
Moon 9:21 PM CDT (10/4) 11:53 AM CDT (10/4)
Length of Visible Light 12h 30m
Length of Day
11h 31m
Waning Gibbous, 82% of the Moon is Illuminated
Oct 4
Waning Gibbous
Oct 8
Last Quarter
Oct 15
New
Oct 21
First Quarter
Oct 29
Full

Hourly Weather History & Observations

Time (CDT) Temp. Windchill Dew Point Humidity Pressure Visibility Wind Dir Wind Speed Gust Speed Precip Events Conditions
12:12 AM 62.8 °F - 33.4 °F 33% 29.73 in 10.0 mi South 21.9 mph 28.8 mph N/A   Clear
12:32 AM 56.3 °F - 37.6 °F 50% 29.74 in 7.0 mi South 18.4 mph 25.3 mph N/A   Clear
12:52 AM 53.8 °F - 38.7 °F 57% 29.75 in 10.0 mi SSW 18.4 mph 27.6 mph N/A   Clear
1:12 AM 52.3 °F - 39.2 °F 61% 29.76 in 10.0 mi SSW 16.1 mph 21.9 mph N/A   Clear
1:32 AM 48.7 °F - 39.6 °F 71% 29.80 in 10.0 mi WSW 23.0 mph 29.9 mph N/A   Clear
1:52 AM 47.3 °F - 39.6 °F 74% 29.81 in 10.0 mi West 21.9 mph 35.7 mph N/A   Scattered Clouds
2:12 AM 47.7 °F - 39.4 °F 73% 29.83 in 7.0 mi West 29.9 mph 40.3 mph N/A   Overcast
2:32 AM 47.3 °F - 39.2 °F 73% 29.86 in 7.0 mi West 35.7 mph 43.7 mph N/A   Overcast
2:52 AM 46.6 °F - 38.7 °F 74% 29.86 in 10.0 mi West 26.5 mph 36.8 mph N/A   Overcast
3:12 AM 45.9 °F 37.4 °F 38.7 °F 76% 29.87 in 10.0 mi West 24.2 mph 35.7 mph N/A   Overcast
3:32 AM 45.5 °F 36.7 °F 38.5 °F 76% 29.90 in 10.0 mi West 25.3 mph 33.4 mph N/A   Overcast
3:52 AM 45.3 °F 35.4 °F 38.3 °F 76% 29.92 in 10.0 mi West 32.2 mph 40.3 mph N/A   Overcast
4:12 AM 44.6 °F 35.1 °F 37.8 °F 77% 29.91 in 10.0 mi West 27.6 mph 39.1 mph N/A   Overcast
4:32 AM 44.2 °F 34.4 °F 37.4 °F 77% 29.92 in 10.0 mi West 28.8 mph 39.1 mph N/A   Overcast
4:52 AM 44.1 °F 34.8 °F 36.5 °F 75% 29.94 in 10.0 mi West 25.3 mph 35.7 mph N/A   Overcast
5:12 AM 43.0 °F 32.9 °F 34.5 °F 72% 29.95 in 10.0 mi West 27.6 mph 33.4 mph N/A   Overcast
5:32 AM 41.9 °F 31.5 °F 32.9 °F 70% 29.96 in 10.0 mi West 27.6 mph 38.0 mph N/A   Overcast
5:52 AM 41.0 °F 31.1 °F 32.2 °F 71% 29.97 in 10.0 mi West 23.0 mph 35.7 mph N/A   Overcast
6:12 AM 40.8 °F 30.0 °F 32.0 °F 71% 29.98 in 10.0 mi West 27.6 mph 33.4 mph N/A   Overcast
6:32 AM 40.5 °F 30.0 °F 32.0 °F 72% 29.99 in 10.0 mi West 25.3 mph 31.1 mph N/A   Overcast
6:52 AM 39.2 °F 28.0 °F 31.6 °F 74% 30.00 in 10.0 mi West 26.5 mph 31.1 mph N/A   Mostly Cloudy
7:12 AM 40.1 °F 29.0 °F 32.0 °F 73% 30.01 in 10.0 mi West 27.6 mph 35.7 mph N/A   Overcast
7:37 AM 40.1 °F 28.8 °F 32.2 °F 73% 30.01 in 10.0 mi West 28.8 mph 40.3 mph N/A   Overcast
7:52 AM 39.9 °F 28.8 °F 32.7 °F 75% 30.03 in 10.0 mi West 27.6 mph 36.8 mph N/A   Overcast
8:12 AM 39.4 °F 28.3 °F 32.2 °F 75% 30.04 in 10.0 mi West 26.5 mph 36.8 mph N/A   Overcast
8:32 AM 39.4 °F 29.0 °F 32.7 °F 77% 30.05 in 10.0 mi West 23.0 mph 35.7 mph N/A   Overcast
8:52 AM 39.2 °F 28.3 °F 32.4 °F 76% 30.06 in 10.0 mi West 25.3 mph 36.8 mph N/A   Overcast
9:12 AM 40.1 °F 28.4 °F 32.0 °F 73% 30.08 in 10.0 mi West 31.1 mph 42.6 mph N/A   Overcast
9:32 AM 40.1 °F 29.0 °F 32.0 °F 73% 30.08 in 10.0 mi West 27.6 mph 35.7 mph N/A   Overcast
9:52 AM 40.5 °F 29.7 °F 32.0 °F 72% 30.09 in 10.0 mi WNW 26.5 mph 36.8 mph N/A   Overcast
10:12 AM 41.5 °F 30.8 °F 31.8 °F 68% 30.10 in 10.0 mi West 28.8 mph 42.6 mph N/A   Overcast
10:32 AM 41.9 °F 32.3 °F 31.8 °F 67% 30.10 in 10.0 mi WNW 23.0 mph 38.0 mph N/A   Overcast
10:52 AM 42.3 °F 31.6 °F 31.1 °F 65% 30.11 in 10.0 mi West 29.9 mph 39.1 mph N/A   Overcast
11:32 AM 43.7 °F 33.7 °F 31.1 °F 61% 30.11 in 10.0 mi West 28.8 mph 39.1 mph N/A   Overcast
11:52 AM 43.5 °F 32.9 °F 30.6 °F 60% 30.13 in 10.0 mi WNW 32.2 mph 39.1 mph N/A   Overcast
12:12 PM 43.9 °F 33.6 °F 30.2 °F 59% 30.14 in 10.0 mi WNW 31.1 mph 41.4 mph N/A   Overcast
12:32 PM 44.6 °F 34.9 °F 30.2 °F 57% 30.15 in 10.0 mi WNW 28.8 mph 43.7 mph N/A   Overcast
12:52 PM 44.2 °F 35.0 °F 30.2 °F 58% 30.15 in 10.0 mi WNW 25.3 mph 36.8 mph N/A   Overcast
1:12 PM 45.5 °F 36.9 °F 29.8 °F 54% 30.16 in 10.0 mi WNW 24.2 mph 29.9 mph N/A   Overcast
1:32 PM 44.8 °F 36.6 °F 30.9 °F 58% 30.17 in 10.0 mi West 20.7 mph 29.9 mph N/A   Overcast
1:52 PM 45.5 °F 37.6 °F 29.8 °F 54% 30.17 in 10.0 mi WNW 20.7 mph 33.4 mph N/A   Overcast
2:12 PM 45.5 °F 37.1 °F 30.7 °F 56% 30.17 in 10.0 mi West 23.0 mph 31.1 mph N/A   Overcast
2:32 PM 45.5 °F 37.1 °F 29.7 °F 54% 30.18 in 10.0 mi WNW 23.0 mph 32.2 mph N/A   Overcast
2:52 PM 45.7 °F 37.6 °F 29.5 °F 53% 30.18 in 10.0 mi WNW 21.9 mph 33.4 mph N/A   Overcast
3:13 PM 46.4 °F 38.1 °F 30.2 °F 53% 30.18 in 10.0 mi West 24.2 mph 28.8 mph N/A   Overcast
3:32 PM 46.8 °F - 30.2 °F 53% 30.18 in 10.0 mi West 25.3 mph 31.1 mph N/A   Overcast
3:52 PM 46.4 °F 38.1 °F 29.8 °F 53% 30.18 in 10.0 mi WNW 24.2 mph 32.2 mph N/A   Overcast
4:12 PM 46.4 °F 38.5 °F 29.8 °F 53% 30.19 in 10.0 mi WNW 21.9 mph 32.2 mph N/A   Overcast
4:32 PM 46.0 °F 37.0 °F 29.3 °F 52% 30.19 in 10.0 mi WNW 27.6 mph 33.4 mph N/A   Overcast
4:52 PM 45.7 °F 37.1 °F 29.5 °F 53% 30.20 in 10.0 mi WNW 24.2 mph 31.1 mph N/A   Overcast
5:12 PM 45.5 °F 36.9 °F 28.9 °F 52% 30.20 in 10.0 mi WNW 24.2 mph 29.9 mph N/A   Overcast
5:32 PM 45.5 °F 38.1 °F 29.3 °F 53% 30.21 in 10.0 mi WNW 18.4 mph 26.5 mph N/A   Overcast
5:52 PM 45.0 °F 37.9 °F 29.8 °F 55% 30.21 in 10.0 mi WNW 16.1 mph 26.5 mph N/A   Overcast
6:12 PM 44.6 °F 35.9 °F 30.4 °F 57% 30.21 in 10.0 mi West 23.0 mph - N/A   Overcast
6:33 PM 44.6 °F 36.1 °F 30.2 °F 57% 30.21 in 10.0 mi West 21.9 mph 27.6 mph N/A   Overcast
6:52 PM 44.2 °F 35.7 °F 30.6 °F 59% 30.21 in 10.0 mi West 21.9 mph 27.6 mph N/A   Overcast
7:12 PM 44.1 °F 35.7 °F 30.6 °F 59% 30.22 in 10.0 mi WNW 20.7 mph 25.3 mph N/A   Overcast
7:32 PM 43.9 °F 36.2 °F 30.6 °F 59% 30.22 in 10.0 mi West 17.3 mph 20.7 mph N/A   Overcast
8:12 PM 43.7 °F 36.6 °F 30.9 °F 61% 30.23 in 10.0 mi WNW 15.0 mph 24.2 mph N/A   Overcast
8:32 PM 43.2 °F 35.3 °F 30.9 °F 62% 30.24 in 10.0 mi West 17.3 mph 21.9 mph N/A   Overcast
8:52 PM 43.0 °F 34.5 °F 30.7 °F 62% 30.24 in 10.0 mi West 19.6 mph 24.2 mph N/A   Overcast
9:12 PM 42.8 °F 34.5 °F 30.4 °F 62% 30.25 in 10.0 mi West 18.4 mph 24.2 mph N/A   Overcast
9:32 PM 42.3 °F 34.8 °F 29.8 °F 61% 30.25 in 10.0 mi West 15.0 mph 21.9 mph N/A   Overcast
9:52 PM 41.9 °F 35.4 °F 30.2 °F 63% 30.25 in 10.0 mi West 11.5 mph - N/A   Overcast
10:12 PM 41.2 °F 34.5 °F 30.4 °F 65% 30.25 in 10.0 mi West 11.5 mph - N/A   Overcast
10:32 PM 42.3 °F 35.9 °F 30.9 °F 64% 30.25 in 10.0 mi WNW 11.5 mph 18.4 mph N/A   Overcast
10:52 PM 40.1 °F 33.6 °F 33.3 °F 77% 30.25 in 10.0 mi WNW 10.4 mph 20.7 mph N/A   Light Drizzle
11:12 PM 40.3 °F 33.9 °F 33.1 °F 75% 30.25 in 10.0 mi WNW 10.4 mph 17.3 mph N/A   Overcast
11:32 PM 40.6 °F 33.8 °F 32.9 °F 74% 30.25 in 10.0 mi WNW 11.5 mph 18.4 mph N/A   Overcast
11:52 PM 41.2 °F 33.7 °F 31.3 °F 68% 30.25 in 10.0 mi West 13.8 mph 18.4 mph N/A   Overcast